Location: ?
(35.3544°N, 139.4507°E)
Time: 06:58:59
(UTC+00:00)

Okean 1-7 - Pass Details

Date: 03 August 2024
Orbit: 578 x 600 km, 82.5° (Epoch: 10 September)

Event Time Altitude Azimuth Distance (km) Brightness Sun altitude
Rises 18:31:49 0° 337° (NNW) 2,821 6.6 -15.4°
Reaches altitude 10° 18:34:22 10° 323° (NW) 1,920 5.6 -15.0°
Maximum altitude 18:37:40 23° 271° (W) 1,286 4.2 -14.4°
Enters shadow 18:38:18 22° 258° (WSW) 1,313 4.2 -14.3°
